Dauntless Aviation
Greetings, Guest! To participate, [sign up for a free account] or [log in]
Airports Europe France
LFIY

Saint Jean d'Angely

FRANCE

Airport Info
Edit

Location

Latitude / Longitude: 45°57'59"N / 0°31'31"W
  45°57.984'N / 0°31.518'W
  45.9664 / -0.5253

Runway Information

Runway 10 /28

Dimensions: 2789 x 164 ft.
Surface: U
 
Runway 10
Runway 28
Latitude: 45.966636 45.965728
Longitude: -0.528086 -0.518369
Elevation: 243 ft. 243 ft.
Runway true heading: 95.7 275.7
 

Instrument Procedures

IAPs (Instrument Approach Procedures)

  Visual Approch Chart
Satellite photo at:
Airport distance calculator
From:
Weather Reports

METAR

LFBG
20.0nm SE
LFBG 210830Z AUTO 22009KT 9999 FEW005 SCT024 OVC030 17/16 Q1020
LFBH
27.2nm W
LFBH 210830Z AUTO 27012KT 9999 SCT017 SCT023 BKN039 19/16 Q1019
LFBU
34.5nm E
LFBU 210830Z AUTO 23008KT 210V270 7000 // OVC002 15/15 Q1020

TAF

LFBG
20.0nm SE
TAF LFBG 210500Z 2106/2206 21005KT 9999 BKN040 BECMG 2106/2108 4000 RADZ BKN005 BKN015 BECMG 2110/2112 9999 NSW BKN025 TEMPO 2110/2120 29015G30KT BECMG 2118/2120 CAVOK
LFBH
27.2nm W
TAF LFBH 210500Z 2106/2206 23010KT 9999 BKN009 TEMPO 2106/2108 5000 BR BKN005 BECMG 2106/2108 27017G30KT BECMG 2108/2110 NSW BKN025 TEMPO 2112/2118 30027G37KT
Safelog

 

Dauntless Aviation

© 2007-2014 Dauntless Aviation, all rights reserved
Information provided via PilotNav comes from a variety of official and unofficial data sources. As errors are possible, do not use PilotNav for primary flight planning purposes. Verify any information that you receive via PilotNav with current and canonical charts and other official documents. The material in this database is subject to database copyrights held by Dauntless Aviation and may not be copied without the express permission of Dauntless Aviation - licenses for use of part of all of this data are available for purchase; enquire via the Dauntless Aviation helpdesk. A number of mechanisms and markers exist in the database to protect against and identify infringement / copyright. Automated queries against this website are stictly prohibited, and all activity is logged and analyzed.